#timestamp,LO_Frequency,Hit,StdDev 
1620733615.3,286046966.7,P
1620733635.1,286046966.5,P
1620733636.0,286046966.5,P
1620733655.8,286046967.3,Y
1620733675.7,286046998.6,P
1620733695.5,286047000.6,N
1620733715.3,286047000.9,N
1620733735.2,286046998.6,N
1620733755.0,286046999.0,N
1620733755.9,286046999.0,N
1620733775.8,286046996.9,N
1620733795.6,286046997.7,N
1620733815.4,286046997.6,N
1620733835.3,286046997.3,N
1620733855.1,286046997.2,N
1620733875.9,286046999.3,N
1620733895.7,286046996.7,N
1620733915.5,286046999.4,N
1620733935.4,286047001.2,N
1620733955.2,286047000.2,N
1620733975.0,286046999.7,N
1620733975.9,286046999.7,N
1620733995.8,286047000.4,N
1620734015.6,286047000.8,N
1620734035.5,286047000.7,N
1620734055.3,286047000.7,N
1620734075.1,286046999.8,N
1620734095.9,286046999.9,N
1620734115.7,286047000.6,N
1620734135.5,286046998.1,N
1620734155.4,286046998.8,N
1620734175.2,286046996.5,N
1620734195.1,286046997.0,N
1620734196.0,286046997.0,N
1620734215.8,286046998.6,N
1620734235.6,286046998.8,N
1620734255.5,286046998.4,N
1620734275.3,286046999.1,N
1620734295.1,286046996.6,N
1620734315.9,286046997.8,N
1620734335.7,286046995.3,Y
1620734355.6,286046997.4,P
1620734375.4,286046996.5,P
1620734395.2,286046996.9,P
